STARLINK-1724, 46375

Orbit data source: Space-Track

STARLINK-1724, 46375 is a payload satellite owned by SpaceX/Seattle (US) in LEO that was launched on Thu, 03 Sep 2020 UTC via an FALCON 9 launch vehicle from the Air Force Eastern Test Range (AFETR). Payload-class satellites include a variety of spacecraft equipped with specific instruments for various scientific and technological missions. These include communications satellites like Starlink; space stations such as the ISS; scientific satellites like the Hubble; Earth observation satellites from companies like Planet Labs, Umbra, and HawkEye 360; GPS; miniature CubeSats for education and research; and military/defense satellites.

Loading next visibility...
Identifier
46375, 2020-062BC
Orbit
LEO
Country
Flag of USUS
Related business
Manufacturer
SpaceX/Seattle
Mission
Partially operational Commercial Communications
Bus & Motor
STARLINK, Unknown motor
Mass
260 kg wet, ~248 kg dry
Launch date (UTC)
2020-09-03 (5 years ago)
Launch vehicle
FALCON 9
Launch site
Air Force Eastern Test Range (AFETR)
Object type
Payload
Rocket body
Debris
Shape & HBR
Box + 1 Pan, 10.1 m
Radar Cross Section
13.562 m², Large (>1 m²)

Expand to show TLE details & history
Last TLE update: 1 day ago

TLE from 1 day ago
0 STARLINK-1724
1 46375U 20062BC  25286.22232140  .00113140  00000-0  42483-2 0  9997
2 46375  53.0372 263.6153 0006610 357.8514   2.2454 15.26305747282851
Epoch: 2025-10-13T05:20Z
TLE epoch observation values (Epoch: 2025-10-13T05:20:08.568Z)
Latitude
-0.00004°
Longitude
161.55137°
Altitude
483.218 km
Speed
7.628 km/s
True Right ascension
17h 34m 27s
True Declination
0° 00' 00"
Sunlit
Object was in daylight at epoch
Visualization orbit readout
Latitude
Unknown
Longitude
Unknown
Altitude
Unknown
Speed
Unknown
Apparent Right ascension
Unknown
Apparent Declination
Unknown
Sunlit
N/A
Visualization observer readout
Local Sidereal Time
01:23:17
Azimuth
Unknown
Elevation
Unknown
Doppler factor
Unknown
Orbital elements
Apogee altitude
491.681 km
Perigee altitude
482.605 km
Semi-major axis
6,865.28 km
Eccentricity
0.00066
Inclination
53.0372°
RAAN
263.6153°
Arg. of periapsis
357.8514°
True anomaly
2.24837°
Mean anomaly
2.2454°
Eccentric anomaly
2.24688°
Mean motion
3.81554 °/min
Orbital period
94.35 mins
BSTAR
0.0042483
Loading maneuver chart data...
Computing Atmospheric mass density...
Loading historical data...
Loading historical data...
Loading historical data...
Loading historical data...
Loading historical data...
Loading historical data...
Loading historical data...

Documentation

Showing up to 5 results
|